sat.trackr.live / text

‹ back to catalog

STARLINK-30240

NORAD 57404 · 2023-102A

PAYLOAD ACTIVE UNKNOWN

§ Identity

Operator
Country
US
Launch date
2023-07-20
Launch site
AFWTR
Launch vehicle
Mass (kg)
RCS (m²)

Purposes: comms

External: N2YO · Heavens-Above · Gunter

§ Orbital elements

Epoch: 2026-05-25T02:05:22.117920Z

Period
94.27 min
Inclination
43.0028°
Eccentricity
0.0001928
Mean motion
15.27578990 rev/d
Perigee alt
481.7 km
Apogee alt
484.4 km
Semi-major
6,861.2 km
B*
5.6231e-5
RAAN
177.1504°
Arg perigee
272.7513°
Mean anomaly
87.3118°
Rev number
15,792

§ Raw data

STARLINK-302401 57404U 23102A   26145.08706155  .00001285  00000+0  56231-4 0  99942 57404  43.0028 177.1504 0001928 272.7513  87.3118 15.27578990157926

JSON: /api/v1/satellites/57404 · /tle

For live sub-satellite position, see the globe view (requires WebGL).

§ Visibility from observer

Set your observer location to see the next 7 days of passes ≥ 10°. The values pass through the URL so the page stays shareable.

No JS? Fill the form by hand. The geolocation button needs JavaScript.